Location: Sternwarte Stuttgart
(48.7670°N, 9.1830°E)
Time: 06:27:04
(UTC+01:00)

Meteor 2-20 - Pass Details

Date: 24 January 2019
Orbit: 940 x 958 km, 82.5° (Epoch: 20 February)

Event Time Altitude Azimuth Distance (km) Brightness Sun altitude
Rises 05:11:57 0° 186° (S) 3,590 7.4 -28.0°
Reaches altitude 10° 05:14:25 10° 185° (S) 2,649 6.7 -27.6°
Maximum altitude 05:20:29 85° 97° (E) 950 4.3 -26.6°
Drops below altitude 10° 05:26:35 10° 11° (N) 2,668 6.9 -25.6°
Sets 05:29:05 0° 11° (N) 3,618 7.6 -25.2°
